Retour au catalogue

DELTA 1 DEB

ActifSSO
NORAD 37658·DEBRIS·🇺🇸 United States

Lancé Mar 5, 1978 depuis Vandenberg Space Force Base

Loading…

Prochains Passages (prochaines 24 heures)

TLE

FraisSource: Space-Track

Époque: Sep 13, 2026, 12:25 UTC

1 37658U 78026JV  26256.51738170 -.00000048  00000-0 -17527-5 0  9996
2 37658  99.1833 158.0689 0065661 170.8341   5.0168 13.99289130185075

Suivez DELTA 1 DEB en temps réel avec AllMySat

Download on the App Store